Tracking 35237 objects as of 6-Sep-2026
HD Live streaming from Space Station
objects crossing your sky now

ISS DEB


ISS DEB is no longer on orbit


NORAD ID: 37221
Int'l Code: 1998-067CB
Launch date: November 20, 1998
Source: International Space Station (ISS)
Launch site: TYURATAM MISSILE AND SPACE COMPLEX (TTMTR)
Decay date: 2010-12-16

Note: This is SATELLITE DEBRIS
Your satellite tracking list
Your tracking list is empty




NASA's NSSDC Master Catalog

Two Line Element Set (TLE):
1 37221U 98067CB  10350.49598496  .20690768  12118-4  17168-2 0  9998
2 37221 051.6183 014.2855 0016246 149.3071 224.5488 16.38340549  4730
Source of the keplerian elements: AFSPC